• In Russia
  • List of Countries
  • For 7 days
  • Water Temperature
  • Satellite Maps
  • Weather Map
  • Weather Widgets
  • user-avatar
    Login

    Hourly Weather Kalgoorlie

    Today, 24 February, Friday

    Time Temperature Precipitation Wind Pressure Humidity
    00:00 +22°C° 0 mm 5 mps 735 mmHg 40%
    01:00 +21°C° 0 mm 6 mps 735 mmHg 44%
    02:00 +20°C° 0 mm 6 mps 735 mmHg 49%
    03:00 +19°C° 0 mm 6 mps 735 mmHg 54%
    04:00 +19°C° 0 mm 6 mps 736 mmHg 59%
    05:00 +17°C° 0 mm 6 mps 736 mmHg 64%
    06:00 +19°C° 0 mm 6 mps 736 mmHg 61%
    07:00 +20°C° 0 mm 6 mps 736 mmHg 59%
    08:00 +21°C° 0 mm 7 mps 737 mmHg 55%
    09:00 +23°C° 0 mm 7 mps 737 mmHg 46%
    10:00 +27°C° 0 mm 7 mps 736 mmHg 37%
    11:00 +29°C° 0 mm 7 mps 736 mmHg 28%
    12:00 +30°C° 0 mm 7 mps 736 mmHg 25%
    13:00 +32°C° 0 mm 6 mps 735 mmHg 22%
    14:00 +33°C° 0 mm 6 mps 735 mmHg 19%
    15:00 +33°C° 0 mm 6 mps 734 mmHg 19%
    16:00 +33°C° 0 mm 6 mps 734 mmHg 19%
    17:00 +33°C° 0 mm 6 mps 734 mmHg 19%
    18:00 +30°C° 0 mm 6 mps 734 mmHg 22%
    19:00 +28°C° 0 mm 5 mps 734 mmHg 24%
    20:00 +26°C° 0 mm 5 mps 734 mmHg 27%
    21:00 +25°C° 0 mm 5 mps 734 mmHg 28%
    22:00 +25°C° 0 mm 5 mps 734 mmHg 29%
    23:00 +23°C° 0 mm 5 mps 735 mmHg 30%

    Tomorrow, 25 February, Saturday

    Time Temperature Precipitation Wind Pressure Humidity
    00:00 +22°C° 0 mm 5 mps 734 mmHg 35%
    01:00 +21°C° 0 mm 6 mps 734 mmHg 40%
    02:00 +20°C° 0 mm 6 mps 734 mmHg 46%
    03:00 +20°C° 0 mm 6 mps 734 mmHg 51%
    04:00 +19°C° 0 mm 6 mps 734 mmHg 57%
    05:00 +19°C° 0 mm 6 mps 734 mmHg 63%
    06:00 +20°C° 0 mm 6 mps 734 mmHg 59%
    07:00 +21°C° 0 mm 6 mps 734 mmHg 56%
    08:00 +22°C° 0 mm 7 mps 734 mmHg 52%
    09:00 +24°C° 0 mm 6 mps 734 mmHg 43%
    10:00 +28°C° 0 mm 6 mps 733 mmHg 34%
    11:00 +30°C° 0 mm 6 mps 733 mmHg 24%
    12:00 +33°C° 0 mm 5 mps 733 mmHg 22%
    13:00 +34°C° 0 mm 4 mps 732 mmHg 19%
    14:00 +35°C° 0 mm 3 mps 731 mmHg 16%
    15:00 +35°C° 0 mm 3 mps 731 mmHg 16%
    16:00 +35°C° 0 mm 2 mps 731 mmHg 15%
    17:00 +35°C° 0 mm 2 mps 730 mmHg 15%
    18:00 +32°C° 0 mm 2 mps 730 mmHg 17%
    19:00 +31°C° 0 mm 3 mps 730 mmHg 19%
    20:00 +29°C° 0 mm 3 mps 730 mmHg 21%
    21:00 +28°C° 0 mm 4 mps 730 mmHg 22%
    22:00 +27°C° 0 mm 4 mps 730 mmHg 23%
    23:00 +26°C° 0 mm 5 mps 730 mmHg 24%

    Day after tomorrow, 26 February, Sunday

    Time Temperature Precipitation Wind Pressure Humidity
    00:00 +26°C° 0 mm 5 mps 729 mmHg 26%
    01:00 +25°C° 0 mm 4 mps 729 mmHg 27%
    02:00 +25°C° 0 mm 4 mps 728 mmHg 28%
    03:00 +23°C° 0 mm 4 mps 728 mmHg 29%
    04:00 +23°C° 0 mm 4 mps 728 mmHg 30%
    05:00 +22°C° 0 mm 4 mps 729 mmHg 31%
    06:00 +25°C° 0 mm 5 mps 729 mmHg 28%
    07:00 +27°C° 0 mm 5 mps 729 mmHg 26%
    08:00 +28°C° 0 mm 6 mps 729 mmHg 23%
    09:00 +32°C° 0 mm 6 mps 729 mmHg 20%
    10:00 +35°C° 0 mm 6 mps 729 mmHg 17%
    11:00 +39°C° 0 mm 6 mps 729 mmHg 14%
    12:00 +39°C° 0 mm 5 mps 729 mmHg 14%
    13:00 +40°C° 0 mm 5 mps 728 mmHg 13%
    14:00 +41°C° 0 mm 4 mps 727 mmHg 12%
    15:00 +40°C° 0 mm 3 mps 727 mmHg 12%
    16:00 +40°C° 0 mm 2 mps 727 mmHg 12%
    17:00 +40°C° 0 mm 1 mps 727 mmHg 12%
    18:00 +38°C° 0 mm 2 mps 727 mmHg 15%
    19:00 +36°C° 0 mm 2 mps 727 mmHg 18%
    20:00 +34°C° 0 mm 2 mps 727 mmHg 21%
    21:00 +32°C° 0.1 mm 2 mps 727 mmHg 23%
    22:00 +31°C° 0.1 mm 2 mps 727 mmHg 25%
    23:00 +31°C° 0.1 mm 2 mps 728 mmHg 27%

    27 February, Monday

    Time Temperature Precipitation Wind Pressure Humidity
    00:00 +30°C° 0.1 mm 2 mps 727 mmHg 27%
    01:00 +29°C° 0.1 mm 2 mps 727 mmHg 28%
    02:00 +28°C° 0.1 mm 3 mps 727 mmHg 28%
    03:00 +28°C° 0.1 mm 3 mps 727 mmHg 28%
    04:00 +28°C° 0.1 mm 3 mps 728 mmHg 28%
    05:00 +27°C° 0.1 mm 4 mps 728 mmHg 28%
    06:00 +28°C° 0 mm 4 mps 728 mmHg 26%
    07:00 +30°C° 0 mm 5 mps 729 mmHg 23%
    08:00 +32°C° 0 mm 5 mps 729 mmHg 21%
    09:00 +35°C° 0 mm 5 mps 729 mmHg 18%
    10:00 +37°C° 0 mm 5 mps 729 mmHg 16%
    11:00 +41°C° 0 mm 5 mps 729 mmHg 13%
    12:00 +42°C° 0 mm 5 mps 728 mmHg 13%
    13:00 +42°C° 0 mm 5 mps 728 mmHg 13%
    14:00 +43°C° 0 mm 5 mps 727 mmHg 12%
    15:00 +42°C° 0 mm 5 mps 727 mmHg 13%
    16:00 +42°C° 0 mm 5 mps 727 mmHg 15%
    17:00 +41°C° 0 mm 5 mps 727 mmHg 16%
    18:00 +39°C° 0 mm 6 mps 728 mmHg 21%
    19:00 +36°C° 0 mm 6 mps 728 mmHg 26%
    20:00 +33°C° 0 mm 6 mps 729 mmHg 31%
    21:00 +30°C° 0 mm 7 mps 729 mmHg 39%
    22:00 +28°C° 0 mm 8 mps 729 mmHg 48%
    23:00 +26°C° 0 mm 8 mps 729 mmHg 56%

    28 February, Tuesday

    Time Temperature Precipitation Wind Pressure Humidity
    00:00 +26°C° 0 mm 8 mps 729 mmHg 59%
    01:00 +24°C° 0 mm 7 mps 729 mmHg 61%
    02:00 +23°C° 0 mm 6 mps 729 mmHg 64%
    03:00 +22°C° 0 mm 6 mps 729 mmHg 65%
    04:00 +22°C° 0 mm 5 mps 729 mmHg 67%
    05:00 +22°C° 0 mm 5 mps 730 mmHg 68%
    06:00 +22°C° 0 mm 5 mps 730 mmHg 66%
    07:00 +23°C° 0 mm 5 mps 731 mmHg 63%
    08:00 +23°C° 0 mm 6 mps 731 mmHg 61%
    09:00 +27°C° 0 mm 6 mps 731 mmHg 52%
    10:00 +29°C° 0 mm 5 mps 731 mmHg 42%
    11:00 +33°C° 0 mm 5 mps 731 mmHg 33%
    12:00 +34°C° 0 mm 5 mps 730 mmHg 30%
    13:00 +35°C° 0 mm 4 mps 730 mmHg 27%
    14:00 +36°C° 0 mm 4 mps 729 mmHg 24%
    15:00 +36°C° 0 mm 4 mps 729 mmHg 24%
    16:00 +36°C° 0 mm 5 mps 729 mmHg 25%
    17:00 +36°C° 0 mm 5 mps 729 mmHg 25%
    18:00 +34°C° 0 mm 6 mps 729 mmHg 28%
    19:00 +33°C° 0 mm 6 mps 730 mmHg 32%
    20:00 +30°C° 0 mm 6 mps 730 mmHg 36%
    21:00 +28°C° 0 mm 6 mps 730 mmHg 44%
    22:00 +27°C° 0 mm 7 mps 730 mmHg 51%
    23:00 +24°C° 0 mm 7 mps 730 mmHg 59%

    1 March, Wednesday

    Time Temperature Precipitation Wind Pressure Humidity
    00:00 +23°C° 0.1 mm 7 mps 730 mmHg 63%
    01:00 +23°C° 0.1 mm 7 mps 730 mmHg 67%
    02:00 +22°C° 0.1 mm 7 mps 730 mmHg 71%
    03:00 +21°C° 0.1 mm 6 mps 730 mmHg 71%
    04:00 +21°C° 0.1 mm 6 mps 730 mmHg 72%
    05:00 +20°C° 0.1 mm 5 mps 730 mmHg 73%
    06:00 +21°C° 0 mm 5 mps 731 mmHg 68%
    07:00 +22°C° 0 mm 5 mps 731 mmHg 63%
    08:00 +23°C° 0 mm 6 mps 731 mmHg 58%
    09:00 +27°C° 0 mm 5 mps 731 mmHg 48%
    10:00 +29°C° 0 mm 5 mps 731 mmHg 38%
    11:00 +33°C° 0 mm 5 mps 731 mmHg 28%
    12:00 +35°C° 0 mm 5 mps 730 mmHg 24%
    13:00 +37°C° 0 mm 4 mps 730 mmHg 19%
    14:00 +40°C° 0 mm 4 mps 729 mmHg 14%
    15:00 +40°C° 0 mm 3 mps 729 mmHg 14%
    16:00 +40°C° 0 mm 3 mps 729 mmHg 13%
    17:00 +40°C° 0 mm 2 mps 729 mmHg 12%
    18:00 +38°C° 0 mm 3 mps 729 mmHg 14%
    19:00 +36°C° 0 mm 3 mps 729 mmHg 16%
    20:00 +34°C° 0 mm 4 mps 729 mmHg 18%
    21:00 +33°C° 0 mm 4 mps 729 mmHg 19%
    22:00 +32°C° 0 mm 5 mps 729 mmHg 19%
    23:00 +30°C° 0 mm 5 mps 729 mmHg 20%
    Show more